Weather History for KROC - October, 2011

Change the Weather History Date:

Sunday, October 16, 2011

  Actual Average Record
Temperature  
Mean Temperature 53 °F 50 °F  
Max Temperature 58 °F 60 °F 85 °F (1947)
Min Temperature 48 °F 41 °F 29 °F (1978)
Degree Days  
Heating Degree Days 12 15  
Month to date heating degree days 127 195  
Since 1 July heating degree days 222 376  
Cooling Degree Days 0 0  
Month to date cooling degree days 1 0  
Year to date cooling degree days 695 534  
Growing Degree Days 4 (Base 50)    
Moisture  
Dew Point 42 °F    
Average Humidity 72    
Maximum Humidity 93    
Minimum Humidity 50    
Precipitation  
Precipitation 0.16 in 0.08 in 1.50 in (1958)
Month to date precipitation 2.49 1.45  
Year to date precipitation 32.80 27.43  
Snow  
Snow 0.00 in 0.00 in 0.20 in (1970)
Month to date snowfall 0.0 0.0  
Since 1 July snowfall 0.0 0.0  
Since 1 September snowfall 0.0 0.0  
Snow Depth 0.00 in    
Sea Level Pressure  
Sea Level Pressure 29.68 in    
Wind  
Wind Speed 13 mph (WSW)    
Max Wind Speed 30 mph    
Max Gust Speed 39 mph    
Visibility 10 miles    
Events Rain    
T = Trace of Precipitation, MM = Missing Value Source: NWS Daily Summary

Daily Weather History Graph

Daily Weather History Graph

Search for Another Location

Airport or City:

Trip Planner

Search our weather history database for the weather conditions in past years. The results will help you decide how hot, cold, wet, or windy it might be!

Date:

Astronomy

Oct. 16, 2011 Rise Set
Actual Time 7:25 AM EDT 6:26 PM EDT
Civil Twilight 6:56 AM EDT 6:55 PM EDT
Nautical Twilight 6:23 AM EDT 7:28 PM EDT
Astronomical Twilight 5:50 AM EDT 8:01 PM EDT
Moon 9:03 PM EDT (10/16) 11:47 AM EDT (10/16)
Length of Visible Light 11h 58m
Length of Day
11h 01m
Waning Gibbous, 82% of the Moon is Illuminated
Oct 16
Waning Gibbous
Oct 19
Last Quarter
Oct 26
New
Nov 2
First Quarter
Nov 10
Full

Hourly Weather History & Observations

Time (EDT) Temp. Dew Point Humidity Pressure Visibility Wind Dir Wind Speed Gust Speed Precip Events Conditions
12:54 AM 53.1 °F 35.1 °F 50% 29.68 in 10.0 mi West 23.0 mph 39.1 mph N/A   Overcast
1:54 AM 51.1 °F 34.0 °F 52% 29.70 in 10.0 mi West 19.6 mph 29.9 mph N/A   Mostly Cloudy
2:54 AM 52.0 °F 35.1 °F 53% 29.71 in 10.0 mi WSW 17.3 mph 26.5 mph N/A   Mostly Cloudy
3:54 AM 50.0 °F 35.1 °F 57% 29.73 in 10.0 mi West 15.0 mph 21.9 mph N/A   Scattered Clouds
4:54 AM 51.1 °F 36.0 °F 56% 29.74 in 10.0 mi West 15.0 mph 21.9 mph N/A   Mostly Cloudy
5:54 AM 50.0 °F 36.0 °F 59% 29.75 in 10.0 mi WSW 10.4 mph - N/A   Partly Cloudy
6:54 AM 50.0 °F 36.0 °F 59% 29.75 in 10.0 mi WSW 11.5 mph - N/A   Partly Cloudy
7:54 AM 50.0 °F 36.0 °F 59% 29.76 in 10.0 mi WSW 9.2 mph - N/A   Overcast
8:54 AM 51.1 °F 39.0 °F 63% 29.76 in 10.0 mi SSW 6.9 mph - N/A   Mostly Cloudy
9:54 AM 55.9 °F 39.9 °F 55% 29.76 in 10.0 mi WSW 16.1 mph 25.3 mph N/A   Mostly Cloudy
10:54 AM 57.0 °F 39.9 °F 53% 29.75 in 10.0 mi WSW 21.9 mph 31.1 mph N/A   Mostly Cloudy
11:54 AM 53.1 °F 45.0 °F 74% 29.75 in 10.0 mi WSW 17.3 mph 28.8 mph 0.00 in Rain Light Rain
12:54 PM 53.1 °F 46.0 °F 77% 29.73 in 10.0 mi WSW 17.3 mph 25.3 mph 0.00 in Rain Light Rain
1:54 PM 54.0 °F 44.1 °F 69% 29.69 in 10.0 mi WSW 26.5 mph 36.8 mph 0.00 in Rain Light Rain
2:54 PM 54.0 °F 43.0 °F 66% 29.66 in 10.0 mi SW 21.9 mph 33.4 mph 0.00 in   Overcast
3:54 PM 53.1 °F 43.0 °F 69% 29.65 in 10.0 mi SW 18.4 mph 25.3 mph N/A   Overcast
4:33 PM 51.8 °F 44.6 °F 76% 29.63 in 10.0 mi SW 12.7 mph - N/A   Overcast
4:54 PM 52.0 °F 44.1 °F 74% 29.63 in 10.0 mi SW 15.0 mph - N/A   Overcast
5:54 PM 52.0 °F 45.0 °F 77% 29.61 in 10.0 mi SW 13.8 mph - 0.00 in Rain Light Rain
6:54 PM 51.1 °F 46.9 °F 86% 29.62 in 3.0 mi Calm Calm - 0.03 in Rain Light Rain
7:54 PM 50.0 °F 48.0 °F 93% 29.61 in 4.0 mi South 6.9 mph - 0.11 in Rain Light Rain
8:18 PM 50.0 °F 48.2 °F 94% 29.59 in 9.0 mi South 9.2 mph - 0.02 in Rain Light Rain
8:54 PM 50.0 °F 48.0 °F 93% 29.59 in 10.0 mi SSW 6.9 mph - 0.02 in   Scattered Clouds
9:06 PM 50.0 °F 48.2 °F 94% 29.59 in 10.0 mi SW 5.8 mph - N/A   Overcast
9:54 PM 50.0 °F 48.0 °F 93% 29.61 in 10.0 mi SW 3.5 mph - N/A   Mostly Cloudy
10:26 PM 50.0 °F 48.2 °F 94% 29.61 in 10.0 mi West 8.1 mph - N/A   Mostly Cloudy
10:54 PM 51.1 °F 46.9 °F 86% 29.62 in 10.0 mi West 12.7 mph 20.7 mph N/A   Scattered Clouds
11:54 PM 50.0 °F 46.0 °F 86% 29.62 in 10.0 mi WSW 9.2 mph - N/A   Partly Cloudy